EW7806 Weather Reports


time (UTC)temp
F
wind
direction
speed
knots
gust
knots
rain 1hr
in
rain 24hr
in
rain mn
in
humidity
%
barometer
mb
20260507093312 62 30 0.0 2.6 0.00 0.00 0.00 54 1016.5
20260507092807 62 311 0.0 0.9 0.00 0.00 0.00 57 1016.5
20260507092307 62 65 0.0 0.9 0.00 0.00 0.00 56 1016.5
20260507091805 61 60 0.0 0.9 0.00 0.00 0.00 59 1016.4
20260507091255 61 58 0.0 1.7 0.00 0.00 0.00 59 1016.4
20260507090746 61 44 0.0 1.7 0.00 0.00 0.00 61 1016.3
20260507085734 60 273 0.0 0.9 0.00 0.00 0.00 62 1016.4
20260507084733 59 65 0.0 0.9 0.00 0.00 0.00 65 1016.3
20260507084219 59 67 0.0 2.6 0.00 0.00 0.00 66 1016.3
20260507083212 58 94 0.0 1.7 0.00 0.00 0.00 67 1016.2
20260507082705 58 51 0.0 1.7 0.00 0.00 0.00 67 1016.2
20260507082208 58 41 0.0 0.9 0.00 0.00 0.00 67 1016.2
20260507081706 57 82 0.0 0.9 0.00 0.00 0.00 68 1016.2
20260507081219 57 283 0.0 0.9 0.00 0.00 0.00 70 1016.2
20260507080207 56 27 0.0 0.9 0.00 0.00 0.00 70 1016.1
20260507075641 56 39 0.0 0.9 0.00 0.00 0.00 70 1016.1
20260507075140 56 171 0.0 0.9 0.00 0.00 0.00 72 1016.1
20260507074136 55 78 0.0 0.9 0.00 0.00 0.00 73 1016.1
20260507073634 55 79 0.0 0.9 0.00 0.00 0.00 74 1016.1
20260507073135 55 44 0.0 0.9 0.00 0.00 0.00 73 1016.1
20260507072634 54 359 0.0 0.9 0.00 0.00 0.00 73 1016.0
20260507072133 54 115 0.0 0.9 0.00 0.00 0.00 75 1015.9
20260507071633 54 70 0.0 0.9 0.00 0.00 0.00 77 1016.0
20260507071109 53 72 0.0 0.9 0.00 0.00 0.00 78 1015.9
20260507070606 53 162 0.0 0.9 0.00 0.00 0.00 77 1015.9
20260507070109 53 103 0.0 0.9 0.00 0.00 0.00 79 1015.9
20260507065607 52 75 0.0 0.9 0.00 0.00 0.00 81 1015.9
20260507065111 52 43 0.0 0.0 0.00 0.00 0.00 84 1015.9
20260507064606 52 68 0.0 0.0 0.00 0.00 0.00 84 1015.9
20260507064112 51 249 0.0 0.9 0.00 0.00 0.00 85 1015.9
20260507063608 51 266 0.0 0.0 0.00 0.00 0.00 86 1015.8
20260507063109 50 70 0.0 0.0 0.00 0.00 0.00 88 1015.8
20260507062605 49 88 0.0 0.0 0.00 0.00 0.00 88 1015.8
20260507062108 49 180 0.0 0.9 0.00 0.00 0.00 89 1015.8
20260507061610 48 230 0.0 0.9 0.00 0.00 0.00 89 1015.7
20260507061110 48 86 0.0 0.0 0.00 0.00 0.00 90 1015.7
20260507060113 47 89 0.0 0.0 0.00 0.00 0.00 90 1015.7
20260507055112 46 91 0.0 0.0 0.00 0.00 0.00 91 1015.6
20260507054615 45 91 0.0 0.0 0.00 0.00 0.00 91 1015.6
20260507053605 44 91 0.0 0.0 0.00 0.00 0.00 91 1015.5
20260507053107 44 53 0.0 0.0 0.00 0.00 0.00 91 1015.5
20260507052603 43 50 0.0 0.0 0.00 0.00 0.00 91 1015.3
20260507052105 43 44 0.0 0.0 0.00 0.00 0.00 91 1015.3
20260507051608 43 44 0.0 0.0 0.00 0.00 0.00 91 1015.3
20260507051048 42 44 0.0 0.0 0.00 0.00 0.00 91 1015.2
20260507050533 42 44 0.0 0.0 0.00 0.00 0.00 91 1015.1
20260507050036 42 44 0.0 0.0 0.00 0.00 0.00 91 1015.1
20260507045032 41 44 0.0 0.0 0.00 0.00 0.00 91 1015.0
20260507044520 41 44 0.0 0.0 0.00 0.00 0.00 91 1015.0
20260507044026 41 44 0.0 0.0 0.00 0.00 0.00 91 1014.9
20260507043516 41 44 0.0 0.0 0.00 0.00 0.00 91 1014.9
20260507042514 41 44 0.0 0.0 0.00 0.00 0.00 91 1014.8
20260507041945 41 44 0.0 0.0 0.00 0.00 0.00 91 1014.8
20260507041436 41 44 0.0 0.0 0.00 0.00 0.00 91 1014.8
20260507035909 41 44 0.0 0.0 0.00 0.00 0.00 91 1014.8
20260507035406 41 44 0.0 0.0 0.00 0.00 0.00 91 1014.8
20260507034902 41 44 0.0 0.0 0.00 0.00 0.00 91 1014.7
20260507033833 42 44 0.0 0.0 0.00 0.00 0.00 91 1014.7
20260507033336 42 44 0.0 0.0 0.00 0.00 0.00 91 1014.7
20260507032809 42 44 0.0 0.0 0.00 0.00 0.00 91 1014.6
20260507032308 42 44 0.0 0.0 0.00 0.00 0.00 90 1014.6
20260507031810 42 44 0.0 0.0 0.00 0.00 0.00 90 1014.5
20260507031310 42 44 0.0 0.0 0.00 0.00 0.00 90 1014.5
20260507030804 42 44 0.0 0.0 0.00 0.00 0.00 90 1014.5
20260507030305 42 44 0.0 0.0 0.00 0.00 0.00 90 1014.5
20260507024737 42 44 0.0 0.0 0.00 0.00 0.00 90 1014.4
20260507024232 42 44 0.0 0.0 0.00 0.00 0.00 90 1014.4
20260507023209 43 44 0.0 0.0 0.00 0.00 0.00 90 1014.4
20260507022700 43 44 0.0 0.0 0.00 0.00 0.00 90 1014.4
20260507022133 43 44 0.0 0.0 0.00 0.00 0.00 90 1014.3
20260507021638 43 44 0.0 0.0 0.00 0.00 0.00 90 1014.3
20260507021121 43 44 0.0 0.0 0.00 0.00 0.00 90 1014.3
20260507020608 43 44 0.0 0.0 0.00 0.00 0.00 90 1014.2
20260507020122 43 44 0.0 0.0 0.00 0.00 0.00 90 1014.2
20260507015613 43 44 0.0 0.0 0.00 0.00 0.00 90 1014.2
20260507015107 43 44 0.0 0.0 0.00 0.00 0.00 90 1014.1
20260507014610 43 44 0.0 0.0 0.00 0.00 0.00 89 1014.0
20260507014108 43 44 0.0 0.0 0.00 0.00 0.00 89 1014.1
20260507013607 43 44 0.0 0.0 0.00 0.00 0.00 89 1014.1
20260507013115 44 44 0.0 0.0 0.00 0.00 0.00 89 1014.1
20260507012611 44 44 0.0 0.0 0.00 0.00 0.00 89 1014.1
20260507012107 44 44 0.0 0.0 0.00 0.00 0.00 89 1014.1
20260507011606 44 44 0.0 0.0 0.00 0.00 0.00 89 1014.1
20260507010605 44 44 0.0 0.0 0.00 0.00 0.00 89 1014.1
20260507010108 44 44 0.0 0.0 0.00 0.00 0.00 89 1014.1
20260507005534 44 44 0.0 0.0 0.00 0.00 0.00 89 1014.0
20260507005032 44 44 0.0 0.0 0.00 0.00 0.00 89 1014.0
20260507004535 44 44 0.0 0.0 0.00 0.00 0.00 89 1014.0
20260507004031 44 44 0.0 0.0 0.00 0.00 0.00 89 1014.0
20260507003522 44 44 0.0 0.0 0.00 0.00 0.00 89 1013.9
20260507003022 44 44 0.0 0.0 0.00 0.00 0.00 89 1013.9
20260507002516 44 44 0.0 0.0 0.00 0.00 0.00 89 1014.0
20260507002022 45 44 0.0 0.0 0.00 0.00 0.00 89 1014.0
20260507001523 45 44 0.0 0.0 0.00 0.00 0.00 89 1014.0
20260507001020 45 44 0.0 0.0 0.00 0.00 0.00 89 1014.0
20260507000520 45 44 0.0 0.0 0.00 0.00 0.00 88 1014.1
20260507000028 45 44 0.0 0.0 0.00 0.00 0.00 88 1014.1
20260506235520 45 44 0.0 0.0 0.00 0.00 0.00 88 1014.1
20260506234520 45 44 0.0 0.0 0.00 0.00 0.00 88 1014.2
20260506234013 45 44 0.0 0.0 0.00 0.00 0.00 88 1014.1
20260506233031 45 44 0.0 0.0 0.00 0.00 0.00 88 1014.0
20260506232512 45 44 0.0 0.0 0.00 0.00 0.00 88 1014.0
20260506232026 45 44 0.0 0.0 0.00 0.00 0.00 87 1014.0
20260506231022 46 44 0.0 0.0 0.00 0.00 0.00 87 1014.0
20260506230517 46 44 0.0 0.0 0.00 0.00 0.00 87 1013.9
20260506230028 46 44 0.0 0.0 0.00 0.00 0.00 87 1013.9
20260506225520 46 44 0.0 0.0 0.00 0.00 0.00 87 1013.9
20260506225024 46 44 0.0 0.0 0.00 0.00 0.00 86 1013.9
20260506224520 46 44 0.0 0.0 0.00 0.00 0.00 86 1013.8
20260506224022 46 44 0.0 0.0 0.00 0.00 0.00 86 1013.8
20260506223012 46 44 0.0 0.0 0.00 0.00 0.00 87 1013.8
20260506222505 47 44 0.0 0.0 0.00 0.00 0.00 86 1013.8
20260506221947 47 44 0.0 0.0 0.00 0.00 0.00 86 1013.8
20260506221434 47 44 0.0 0.0 0.00 0.00 0.00 86 1013.8
20260506220925 47 44 0.0 0.0 0.00 0.00 0.00 86 1013.7
20260506220413 47 44 0.0 0.0 0.00 0.00 0.00 86 1013.6
20260506215905 47 44 0.0 0.0 0.00 0.00 0.00 86 1013.5
20260506215407 47 44 0.0 0.0 0.00 0.00 0.00 86 1013.5
20260506214409 48 43 0.0 0.0 0.00 0.00 0.00 86 1013.5
20260506213908 48 43 0.0 0.0 0.00 0.00 0.00 86 1013.5
20260506213407 48 42 0.0 0.0 0.00 0.00 0.00 86 1013.4
20260506212905 48 42 0.0 0.0 0.00 0.00 0.00 86 1013.4
20260506211910 48 42 0.0 0.0 0.00 0.00 0.00 85 1013.4
20260506210904 49 84 0.0 0.0 0.00 0.00 0.00 85 1013.4
20260506210404 49 50 0.0 0.0 0.00 0.00 0.00 85 1013.3
20260506205843 49 49 0.0 0.9 0.00 0.00 0.00 85 1013.3
20260506205340 49 49 0.0 0.9 0.00 0.00 0.00 84 1013.3
20260506204332 49 103 0.0 0.9 0.00 0.00 0.00 84 1013.2
20260506203832 49 110 0.0 0.9 0.00 0.00 0.00 83 1013.2
20260506203332 49 77 0.0 0.0 0.00 0.00 0.00 83 1013.2
20260506201833 50 216 0.0 0.0 0.00 0.00 0.00 82 1013.1
20260506201332 50 163 0.0 0.9 0.00 0.00 0.00 82 1013.1
20260506200831 50 194 0.0 0.9 0.00 0.00 0.00 81 1013.1
20260506200338 50 30 0.0 0.9 0.00 0.00 0.00 80 1012.9
20260506195815 50 55 0.0 0.9 0.00 0.00 0.00 80 1012.9
20260506195306 50 353 0.0 0.0 0.00 0.00 0.00 79 1012.8
20260506194810 51 45 0.0 0.9 0.00 0.00 0.00 79 1012.8
20260506194234 51 53 0.0 0.9 0.00 0.00 0.00 79 1012.7
20260506193242 51 219 0.0 1.7 0.00 0.00 0.00 77 1012.6
20260506192733 51 323 0.0 2.6 0.00 0.00 0.00 77 1012.6
20260506192232 51 243 0.0 2.6 0.00 0.00 0.00 77 1012.5
20260506191733 52 37 0.0 0.9 0.00 0.00 0.00 76 1012.4
20260506191212 52 64 0.0 2.6 0.00 0.00 0.00 75 1012.3
20260506190709 52 275 0.0 2.6 0.00 0.00 0.00 75 1012.3
20260506190207 52 28 0.0 2.6 0.00 0.00 0.00 74 1012.2
20260506185705 53 116 0.0 2.6 0.00 0.00 0.00 73 1012.1
20260506185203 53 77 0.0 3.5 0.00 0.00 0.00 72 1012.1
20260506184708 53 31 0.0 3.5 0.00 0.00 0.00 71 1012.1
20260506184205 53 55 0.0 0.9 0.00 0.00 0.00 71 1012.0
20260506183710 53 259 0.0 0.9 0.00 0.00 0.00 71 1012.0
20260506183205 54 212 0.0 1.7 0.00 0.00 0.00 69 1011.9
20260506182631 54 27 0.0 2.6 0.00 0.00 0.00 68 1011.9
20260506182134 54 23 0.0 2.6 0.00 0.00 0.00 66 1011.9
20260506181636 55 38 0.0 2.6 0.00 0.00 0.00 66 1011.7
20260506181103 55 148 0.0 3.5 0.00 0.00 0.00 66 1011.8
20260506180609 55 98 0.0 1.7 0.00 0.00 0.00 66 1011.7
20260506180106 55 75 0.0 1.7 0.00 0.00 0.00 65 1011.6
20260506175606 55 321 0.0 3.5 0.00 0.00 0.00 64 1011.6
20260506175108 56 64 0.0 3.5 0.00 0.00 0.00 64 1011.5
20260506174045 56 34 0.0 3.5 0.00 0.00 0.00 63 1011.3
20260506173534 56 32 0.0 1.7 0.00 0.00 0.00 61 1011.3
20260506173038 56 45 0.0 3.5 0.00 0.00 0.00 61 1011.3
20260506172538 57 19 0.0 3.5 0.00 0.00 0.00 62 1011.2
20260506172033 57 120 0.0 3.5 0.00 0.00 0.00 60 1011.2
20260506171523 57 262 0.0 2.6 0.00 0.00 0.00 61 1011.1
20260506171024 57 240 0.0 2.6 0.00 0.00 0.00 60 1011.1
20260506170521 57 148 0.0 2.6 0.00 0.00 0.00 59 1011.1
20260506170017 57 172 0.0 3.5 0.00 0.00 0.00 59 1011.1
20260506165516 57 47 0.0 3.5 0.00 0.00 0.00 60 1011.0
20260506165024 57 271 0.9 3.5 0.00 0.00 0.00 61 1011.0
20260506164514 57 271 0.9 3.5 0.00 0.00 0.00 61 1011.0
20260506164022 57 250 0.9 3.5 0.00 0.00 0.00 61 1011.0
20260506163023 57 37 0.0 7.0 0.00 0.00 0.00 62 1010.9
20260506162457 57 136 0.0 2.6 0.00 0.00 0.00 62 1010.9
20260506161953 57 257 0.0 2.6 0.00 0.00 0.00 61 1010.8
20260506161452 57 18 0.0 2.6 0.00 0.00 0.00 61 1010.9
20260506160952 58 11 0.0 2.6 0.00 0.00 0.00 62 1010.9
20260506160446 58 129 0.0 1.7 0.00 0.00 0.00 63 1010.9
20260506155935 58 277 0.9 6.1 0.00 0.00 0.00 64 1010.9
20260506154431 58 10 0.9 5.2 0.00 0.00 0.00 64 1010.9
20260506153932 58 39 0.9 5.2 0.00 0.00 0.00 63 1010.8
20260506153435 58 341 0.0 1.7 0.00 0.00 0.00 66 1010.7
20260506152934 58 33 0.0 2.6 0.00 0.00 0.00 66 1010.8
20260506152432 59 113 0.0 2.6 0.00 0.00 0.00 65 1010.7
20260506151933 58 162 0.0 1.7 0.00 0.00 0.00 66 1010.6
20260506151405 58 52 0.0 4.3 0.00 0.00 0.00 67 1010.6
20260506150907 58 16 0.0 4.3 0.00 0.00 0.00 66 1010.6
20260506150406 58 337 0.0 2.6 0.00 0.00 0.00 65 1010.7
20260506145408 59 250 0.0 4.3 0.00 0.00 0.00 63 1010.7
20260506144407 59 157 0.0 5.2 0.00 0.00 0.00 63 1010.6
20260506143404 59 5 0.0 3.5 0.00 0.00 0.00 60 1010.5
20260506142405 59 49 0.0 5.2 0.00 0.00 0.00 62 1010.4
20260506141911 60 139 0.0 5.2 0.00 0.00 0.00 63 1010.5
20260506141348 60 319 0.0 5.2 0.00 0.00 0.00 63 1010.5
20260506140340 59 332 0.0 3.5 0.00 0.00 0.00 62 1010.5
20260506135818 59 50 0.0 4.3 0.00 0.00 0.00 62 1010.5
20260506134813 59 167 0.0 1.7 0.00 0.00 0.00 63 1010.5
20260506134303 59 55 0.0 1.7 0.00 0.00 0.00 62 1010.4
20260506133804 59 50 0.0 3.5 0.00 0.00 0.00 62 1010.5
20260506133307 59 46 0.9 4.3 0.00 0.00 0.00 59 1010.5
20260506132806 60 90 0.9 4.3 0.00 0.00 0.00 61 1010.5
20260506132306 60 36 0.0 4.3 0.00 0.00 0.00 62 1010.4
20260506131235 61 283 0.0 3.5 0.00 0.00 0.00 60 1010.2
20260506130732 61 37 0.0 3.5 0.00 0.00 0.00 62 1010.3
20260506130235 61 248 0.0 3.5 0.00 0.00 0.00 59 1010.3
20260506125708 61 314 0.0 3.5 0.00 0.00 0.00 62 1010.3
20260506125207 61 79 0.0 3.5 0.00 0.00 0.00 63 1010.3
20260506124708 61 89 0.0 3.5 0.00 0.00 0.00 63 1010.3
20260506124206 61 90 0.0 3.5 0.00 0.00 0.00 67 1010.2
20260506123703 60 224 0.9 3.5 0.00 0.00 0.00 67 1010.3
20260506122633 59 165 0.0 3.5 0.00 0.00 0.00 69 1010.3
20260506121632 58 308 0.0 3.5 0.00 0.00 0.00 70 1010.2
20260506121105 58 32 0.0 3.5 0.00 0.00 0.00 69 1010.2
20260506120106 57 51 0.0 0.9 0.00 0.00 0.00 70 1010.2
20260506115603 58 297 0.0 3.5 0.00 0.00 0.00 69 1010.2
20260506115104 58 188 0.0 3.5 0.00 0.00 0.00 70 1010.2
20260506114610 58 13 0.0 2.6 0.00 0.00 0.00 68 1010.2
20260506114102 58 293 0.0 2.6 0.00 0.00 0.00 67 1010.3
20260506113602 58 259 0.0 2.6 0.00 0.00 0.00 67 1010.2
20260506113107 58 249 0.0 2.6 0.00 0.00 0.00 67 1010.2
20260506112536 58 248 0.0 2.6 0.00 0.00 0.00 67 1010.2
20260506111531 59 238 0.0 2.6 0.00 0.00 0.00 66 1010.1
20260506111037 60 241 0.0 3.5 0.00 0.00 0.00 65 1010.1
20260506110539 61 66 0.0 3.5 0.00 0.00 0.00 63 1010.1
20260506110026 61 31 0.0 3.5 0.00 0.00 0.00 63 1010.1
20260506105521 61 250 0.0 3.5 0.00 0.00 0.00 66 1010.1
20260506105022 60 315 0.0 0.9 0.00 0.00 0.00 65 1010.1
20260506104507 60 285 0.0 2.6 0.00 0.00 0.00 65 1010.1
20260506104008 59 29 0.0 2.6 0.00 0.00 0.00 67 1010.1
20260506102504 58 44 0.0 3.5 0.00 0.00 0.00 69 1010.0
20260506102001 57 50 0.0 1.7 0.00 0.00 0.00 71 1010.1
20260506100456 57 103 0.0 1.7 0.00 0.00 0.00 75 1010.0
20260506095934 57 76 0.0 3.5 0.00 0.00 0.00 76 1010.0
20260506095436 56 30 0.0 3.5 0.00 0.00 0.00 76 1010.1
20260506094934 56 145 0.0 2.6 0.00 0.00 0.00 76 1010.0
20260506093912 56 21 0.0 2.6 0.00 0.00 0.00 74 1010.1